{"data":{"norad_id":67956,"intl_designator":"2026-037AA","name":"STARLINK-36918","alt_names":[],"object_type":"PAYLOAD","status":"ACTIVE","operator":null,"country":"US","launch_date":"2026-02-24","launch_site_code":"AFETR","launch_vehicle":null,"mission":null,"orbit_class":"UNKNOWN","rcs_meters":null,"size_class":null,"mass_kg":null,"dimensions":null,"purposes":["comms"],"wikipedia_slug":null,"has_3d_model":false,"image_url":null,"decayed_at":null,"tle_current":{"epoch":"2026-05-25T04:58:20.496288Z","epoch_age_seconds":67862,"freshness":"FRESH","line1":"1 67956U 26037AA  26145.20718167  .00015920  00000+0  58667-3 0  9992","line2":"2 67956  42.9991 118.5337 0001583 268.6917  91.3754 15.27586291 15048","mean_motion":15.27586291,"eccentricity":0.0001583,"inclination_deg":42.9991,"raan_deg":118.5337,"arg_perigee_deg":268.6917,"mean_anomaly_deg":91.3754,"bstar":0.00058667,"rev_number":1504,"period_min":94.266360498518,"perigee_km":481.94413581009,"apogee_km":484.11638136416,"semimajor_km":6861.1672585871,"source":"CELESTRAK","updated_at":"2026-05-25T13:38:21.771407Z"}}}